Powrót do katalogu

TITAN 3D DEB

AktywnyPO
NORAD 6823·DEBRIS·🇺🇸 United States

Wystrzelony Oct 10, 1972 z Vandenberg Space Force Base

Loading…

Następne Przeloty (najbliższe 24 godziny)

TLE

ŚwieżeSource: Space-Track

Epoka: Sep 13, 2026, 03:03 UTC

1 06823U 72079D   26256.12721846 -.00000020  00000-0 -43469-4 0  9990
2 06823  95.8079 313.7327 0053199  91.2933 297.1488 12.54880377468764

Śledź TITAN 3D DEB w czasie rzeczywistym z AllMySat

Download on the App Store